Regional Weather Roundup
Issued by NWS

Home | Current Version | Previous Version | Text Only | Print | Product List | Glossary Off
Versions: 1 2 3 4 5 6 7 8 9 10 11 12 13 14 15 16 17 18 19 20 21 22 23 24 25 26 27 28 29 30 31 32 33 34 35 36 37 38 39 40 41 42 43 44 45 46 47 48 49 50

000
ASUS43 KLOT 251203
RWRIL

ILLINOIS REGIONAL WEATHER ROUNDUP
NATIONAL WEATHER SERVICE CHICAGO/ROMEOVILLE IL
700 AM CDT WED MAY 25 2016

NOTE: "FAIR" INDICATES FEW OR NO CLOUDS BELOW 12,000 FEET WITH NO
SIGNIFICANT WEATHER AND/OR OBSTRUCTIONS TO VISIBILITY.

* THESE STATIONS ARE NOT UNDER NWS QUALITY CONTROL. THEY ALSO MAY NOT
  REPORT WEATHER SUCH AS PRECIPITATION OR FOG.

ILZ001-002-007-009-015-016-024-251300-
NORTHWEST ILLINOIS

CITY           SKY/WX    TMP DP  RH WIND       PRES   REMARKS
MOLINE         CLOUDY    68  62  81 CALM      29.96R
6HR MIN TEMP:  63; 6HR MAX TEMP:  70;

STERLING*      SUNNY     68  64  87 S3        30.00R
$$

ILZ003-004-008-010-011-017-018-251300-
NORTH CENTRAL ILLINOIS

CITY           SKY/WX    TMP DP  RH WIND       PRES   REMARKS
ROCKFORD       PTSUNNY   67  61  81 S5        30.01R
6HR MIN TEMP:  62; 6HR MAX TEMP:  70;

FREEPORT*      MOSUNNY   66  61  83 S7        30.01R
ROCHELLE*      SUNNY     68  63  83 S7        30.01R
$$

ILZ005-006-012>014-019>023-251300-
NORTHEAST ILLINOIS

CITY           SKY/WX    TMP DP  RH WIND       PRES   REMARKS
CHICAGO-OHARE  MOSUNNY   69  61  75 S8        30.00R
6HR MIN TEMP:  64; 6HR MAX TEMP:  73;

CHICAGO-MIDWAY PTSUNNY   71  60  68 S8        30.01R
6HR MIN TEMP:  70; 6HR MAX TEMP:  75;

AURORA         SUNNY     68  62  81 S8        30.01R
6HR MIN TEMP:  63; 6HR MAX TEMP:  72;

LANSING*       SUNNY     67  59  75 SW3       30.02R
WAUKEGAN       PTSUNNY   71  63  75 SW8       29.99R
6HR MIN TEMP:  63; 6HR MAX TEMP:  71;

DUPAGE AIRPORT MOSUNNY   68  61  78 S8        30.00R
6HR MIN TEMP:  63; 6HR MAX TEMP:  70;

WHEELING       SUNNY     70  62  76 S5        30.01R
6HR MIN TEMP:  65; 6HR MAX TEMP:  74;

NORTHERLY ISL    N/A     65  58  78 S3          N/A
NORTHERLY ISL    N/A     65  58  78 S3          N/A
$$

LMZ740>746-251300-
SOUTHERN LAKE MICHIGAN

STATION/POSITION SKY/WX   TEMP    WIND        PRES    VSBY  WAVE
                          AIR SEA DIR/SP/G                  HT/PER
                          (F)     (DEG/KT/KT) (MB)    (MI)  (FT/S)
SOUTHERN BUOY              54 49  160/  8/  8 1014.4          1
WILMETTE HARBOR            61 56  170/  6/  6   N/A           1
HARRISON CRIB              68     180/ 11/ 12   N/A
BURNHAM HARBOR             69     200/  6/  6   N/A
CALUMET HARBOR                    170/  6/  7   N/A
BURNS HARBOR               69     160/  7/ 10 1015.9S
MICHIGAN CITY              68     130/  6/  8   N/A
MICHIGAN CITY 6N           63 57  150/  4/  6   N/A           0
ST. JOSEPH                 62 58  140/  6/  6   N/A           1
$$

ILZ025>027-034>036-040-047-049-050-058-095>099-251300-
WEST-CENTRAL ILLINOIS

CITY           SKY/WX    TMP DP  RH WIND       PRES   REMARKS
QUINCY         CLOUDY    65  62  90 S10       29.97R
MACOMB*        CLOUDY    64  62  91 SE10      29.99S
PITTSFIELD*    PTSUNNY   65  62  91 S8        30.00R
$$

ILZ028>032-037-038-041>044-048-051>054-059>061-251300-
CENTRAL ILLINOIS

CITY           SKY/WX    TMP DP  RH WIND       PRES   REMARKS
BLOOMINGTON    SUNNY     65  65 100 S13       30.04R
DECATUR        MOSUNNY   66  61  84 S9        30.04R
PEORIA         MOSUNNY   66  62  87 S7        30.01R
6HR MIN TEMP:  64; 6HR MAX TEMP:  71;

SPRINGFIELD    PTSUNNY   67  63  87 S10       30.02S
6HR MIN TEMP:  63; 6HR MAX TEMP:  69;

TAYLORVILLE    NOT AVBL
$$

ILZ033-039-045-046-055>057-062-063-251300-
EAST-CENTRAL ILLINOIS

CITY           SKY/WX    TMP DP  RH WIND       PRES   REMARKS
CHAMPAIGN      MOSUNNY   66  62  87 SW9       30.05R
MATTOON        SUNNY     65  61  87 S8        30.05R
$$

ILZ079-100>102-251300-
SOUTHWEST ILLINOIS

CITY           SKY/WX    TMP DP  RH WIND       PRES   REMARKS
ALTON          MOSUNNY   63  63 100 SE7       30.02F
CAHOKIA*       CLOUDY    66  62  87 SE6       30.01F
SPARTA*        CLOUDY    64  62  92 S10       30.05F
$$

ILZ064>066-069>071-074>076-080>082-084>086-088>090-092>094-251300-
SOUTH-CENTRAL ILLINOIS

CITY           SKY/WX    TMP DP  RH WIND       PRES   REMARKS
CARBONDALE     PTSUNNY   64  61  90 S6        30.07R
6HR MIN TEMP:  63; 6HR MAX TEMP:  65;

MARION         CLOUDY    66  64  94 SE6       30.09R THUNDER
MT. VERNON     CLOUDY    64  61  88 CALM      30.08R
SALEM*         PTSUNNY   67  63  87 S6        30.06S
$$

ILZ067-068-072-073-078-083-087-091-251300-
SOUTHEAST ILLINOIS

CITY           SKY/WX    TMP DP  RH WIND       PRES   REMARKS
LAWRENCEVILLE  MOSUNNY   66  62  87 S5        30.08R
FLORA*         CLOUDY    66  64  91 SW5       30.07R
HARRISBURG*    CLOUDY    64  63  96 CALM      30.09R
ROBINSON*      MOSUNNY   65  62  89 CALM      30.08R
$$

ABBREVIATIONS USED IN REMARKS
   TC - TEMPERATURE IN CELSIUS
  WCI - WIND CHILL INDEX
   HX - HEAT INDEX
  VSB - VISIBILITY
$$





USA.gov is the U.S. government's official web portal to all federal, state and local government web resources and services.